| time (UTC) | temp F | wind direction | speed MPH | gust MPH | rain 1hr in | rain 24hr in | rain mn in | humidity % | barometer mb |
| 20260507120604 | 64 | 356 | 3.0 | 10.0 | 0.00 | 0.25 | 0.00 | 22 | 1013.0 |
| 20260507120104 | 64 | 61 | 6.0 | 14.0 | 0.00 | 0.25 | 0.00 | 26 | 1013.0 |
| 20260507115604 | 63 | 0 | 9.0 | 14.0 | 0.00 | 0.25 | 0.00 | 25 | 1012.9 |
| 20260507114604 | 64 | 63 | 10.0 | 14.0 | 0.00 | 0.25 | 0.00 | 32 | 1013.1 |
| 20260507114104 | 65 | 30 | 5.0 | 10.0 | 0.00 | 0.25 | 0.00 | 31 | 1013.1 |
| 20260507113604 | 65 | 32 | 5.0 | 9.0 | 0.00 | 0.25 | 0.00 | 30 | 1013.2 |
| 20260507112604 | 65 | 70 | 6.0 | 12.0 | 0.00 | 0.25 | 0.00 | 23 | 1013.1 |
| 20260507111104 | 65 | 357 | 4.0 | 10.0 | 0.00 | 0.25 | 0.00 | 16 | 1013.2 |
| 20260507110604 | 65 | 346 | 9.0 | 12.0 | 0.00 | 0.25 | 0.00 | 23 | 1013.2 |
| 20260507110105 | 64 | 8 | 4.0 | 10.0 | 0.00 | 0.25 | 0.00 | 14 | 1013.2 |
| 20260507105604 | 64 | 346 | 5.0 | 8.0 | 0.00 | 0.25 | 0.00 | 20 | 1013.3 |
| 20260507104604 | 63 | 35 | 8.0 | 12.0 | 0.00 | 0.25 | 0.00 | 30 | 1013.5 |
| 20260507104104 | 63 | 346 | 5.0 | 8.0 | 0.00 | 0.25 | 0.00 | 23 | 1013.6 |
| 20260507103604 | 62 | 20 | 5.0 | 12.0 | 0.00 | 0.25 | 0.00 | 23 | 1013.6 |
| 20260507102104 | 62 | 41 | 6.0 | 12.0 | 0.00 | 0.25 | 0.00 | 22 | 1013.6 |
| 20260507101603 | 62 | 13 | 9.0 | 12.0 | 0.00 | 0.25 | 0.00 | 20 | 1013.6 |
| 20260507101104 | 62 | 41 | 7.0 | 12.0 | 0.00 | 0.25 | 0.00 | 16 | 1013.7 |
| 20260507100604 | 62 | 39 | 10.0 | 13.0 | 0.00 | 0.25 | 0.00 | 18 | 1013.6 |
| 20260507100104 | 62 | 5 | 7.0 | 10.0 | 0.00 | 0.25 | 0.00 | 15 | 1013.6 |
| 20260507094603 | 62 | 36 | 7.0 | 10.0 | 0.00 | 0.25 | 0.00 | 20 | 1013.7 |
| 20260507094104 | 62 | 24 | 6.0 | 9.0 | 0.00 | 0.25 | 0.00 | 18 | 1013.6 |
| 20260507093603 | 61 | 15 | 5.0 | 12.0 | 0.00 | 0.25 | 0.00 | 12 | 1013.6 |
| 20260507093104 | 61 | 48 | 3.0 | 9.0 | 0.00 | 0.25 | 0.00 | 3 | 1013.7 |
| 20260507092604 | 61 | 40 | 4.0 | 9.0 | 0.00 | 0.25 | 0.00 | 3 | 1013.6 |
| 20260507092104 | 60 | 62 | 7.0 | 12.0 | 0.00 | 0.25 | 0.00 | 3 | 1013.5 |
| 20260507091604 | 60 | 49 | 6.0 | 10.0 | 0.00 | 0.25 | 0.00 | 3 | 1013.6 |
| 20260507091104 | 60 | 30 | 7.0 | 12.0 | 0.00 | 0.25 | 0.00 | 3 | 1013.6 |
| 20260507090604 | 59 | 15 | 4.0 | 8.0 | 0.00 | 0.25 | 0.00 | 3 | 1013.6 |
| 20260507090105 | 59 | 23 | 8.0 | 12.0 | 0.00 | 0.25 | 0.00 | 3 | 1013.6 |
| 20260507085104 | 58 | 28 | 7.0 | 12.0 | 0.00 | 0.25 | 0.00 | 3 | 1013.6 |
| 20260507084605 | 58 | 4 | 8.0 | 14.0 | 0.00 | 0.25 | 0.00 | 3 | 1013.7 |
| 20260507084104 | 59 | 8 | 6.0 | 10.0 | 0.00 | 0.25 | 0.00 | 3 | 1013.8 |
| 20260507083604 | 59 | 347 | 4.0 | 10.0 | 0.00 | 0.25 | 0.00 | 3 | 1013.8 |
| 20260507083104 | 59 | 42 | 6.0 | 12.0 | 0.00 | 0.25 | 0.00 | 3 | 1013.8 |
| 20260507082104 | 60 | 42 | 4.0 | 8.0 | 0.00 | 0.25 | 0.00 | 3 | 1013.8 |
| 20260507081604 | 59 | 54 | 5.0 | 6.0 | 0.00 | 0.25 | 0.00 | 3 | 1013.9 |
| 20260507081104 | 59 | 33 | 4.0 | 7.0 | 0.00 | 0.25 | 0.00 | 3 | 1013.9 |
| 20260507080604 | 59 | 357 | 3.0 | 5.0 | 0.00 | 0.25 | 0.00 | 3 | 1013.9 |
| 20260507075604 | 58 | 71 | 1.0 | 3.0 | 0.00 | 0.25 | 0.00 | 3 | 1013.8 |
| 20260507075104 | 57 | 94 | 1.0 | 6.0 | 0.00 | 0.25 | 0.00 | 3 | 1013.8 |
| 20260507074604 | 57 | 26 | 3.0 | 7.0 | 0.00 | 0.25 | 0.00 | 3 | 1013.7 |
| 20260507074104 | 57 | 41 | 3.0 | 9.0 | 0.00 | 0.25 | 0.00 | 3 | 1013.7 |
| 20260507073604 | 56 | 19 | 2.0 | 6.0 | 0.00 | 0.25 | 0.00 | 3 | 1013.7 |
| 20260507073104 | 56 | 48 | 3.0 | 7.0 | 0.00 | 0.25 | 0.00 | 3 | 1013.7 |
| 20260507072604 | 56 | 46 | 3.0 | 7.0 | 0.00 | 0.25 | 0.00 | 3 | 1013.7 |
| 20260507072103 | 56 | 17 | 2.0 | 3.0 | 0.00 | 0.25 | 0.00 | 3 | 1013.7 |
| 20260507071604 | 56 | 78 | 1.0 | 3.0 | 0.00 | 0.25 | 0.00 | 3 | 1013.7 |
| 20260507071104 | 56 | 105 | 1.0 | 3.0 | 0.00 | 0.25 | 0.00 | 3 | 1013.7 |
| 20260507070604 | 56 | 132 | 1.0 | 2.0 | 0.00 | 0.25 | 0.00 | 3 | 1013.7 |
| 20260507070104 | 56 | 173 | 0.0 | 0.0 | 0.00 | 0.25 | 0.00 | 3 | 1013.6 |
| 20260507065604 | 56 | 173 | 0.0 | 0.0 | 0.00 | 0.25 | 0.00 | 3 | 1013.6 |
| 20260507065103 | 55 | 173 | 1.0 | 3.0 | 0.00 | 0.25 | 0.00 | 3 | 1013.6 |
| 20260507064103 | 55 | 171 | 2.0 | 3.0 | 0.00 | 0.25 | 0.00 | 3 | 1013.6 |
| 20260507063604 | 54 | 148 | 2.0 | 3.0 | 0.00 | 0.25 | 0.00 | 3 | 1013.6 |
| 20260507063104 | 54 | 175 | 2.0 | 3.0 | 0.00 | 0.25 | 0.00 | 3 | 1013.5 |
| 20260507062604 | 53 | 125 | 2.0 | 5.0 | 0.00 | 0.25 | 0.00 | 3 | 1013.5 |
| 20260507061603 | 53 | 164 | 2.0 | 5.0 | 0.00 | 0.25 | 0.00 | 3 | 1013.4 |
| 20260507060605 | 52 | 179 | 3.0 | 3.0 | 0.00 | 0.25 | 0.00 | 3 | 1013.3 |
| 20260507060104 | 52 | 190 | 3.0 | 5.0 | 0.00 | 0.25 | 0.00 | 3 | 1013.3 |
| 20260507055603 | 51 | 178 | 3.0 | 6.0 | 0.00 | 0.25 | 0.00 | 3 | 1013.3 |
| 20260507055105 | 51 | 176 | 4.0 | 6.0 | 0.00 | 0.25 | 0.00 | 3 | 1013.3 |
| 20260507054104 | 51 | 167 | 5.0 | 8.0 | 0.00 | 0.25 | 0.00 | 3 | 1013.3 |
| 20260507053104 | 51 | 171 | 5.0 | 7.0 | 0.00 | 0.25 | 0.00 | 3 | 1013.3 |
| 20260507052604 | 51 | 174 | 5.0 | 7.0 | 0.00 | 0.25 | 0.00 | 3 | 1013.2 |
| 20260507052104 | 51 | 168 | 5.0 | 6.0 | 0.00 | 0.25 | 0.00 | 3 | 1013.2 |
| 20260507051604 | 51 | 174 | 5.0 | 8.0 | 0.00 | 0.25 | 0.00 | 3 | 1013.2 |
| 20260507051105 | 51 | 174 | 5.0 | 7.0 | 0.00 | 0.25 | 0.00 | 3 | 1013.2 |
| 20260507050604 | 51 | 169 | 3.0 | 7.0 | 0.00 | 0.25 | 0.00 | 3 | 1013.2 |
| 20260507050104 | 51 | 157 | 4.0 | 6.0 | 0.00 | 0.25 | 0.00 | 3 | 1013.2 |
| 20260507045604 | 51 | 169 | 5.0 | 6.0 | 0.00 | 0.25 | 0.00 | 3 | 1013.1 |
| 20260507045105 | 51 | 142 | 6.0 | 8.0 | 0.00 | 0.25 | 0.00 | 3 | 1013.1 |
| 20260507043604 | 52 | 191 | 2.0 | 3.0 | 0.00 | 0.25 | 0.00 | 3 | 1013.1 |
| 20260507043104 | 52 | 206 | 3.0 | 6.0 | 0.00 | 0.25 | 0.00 | 3 | 1013.1 |
| 20260507042604 | 52 | 155 | 3.0 | 5.0 | 0.00 | 0.25 | 0.00 | 3 | 1013.0 |
| 20260507041604 | 52 | 170 | 4.0 | 7.0 | 0.00 | 0.25 | 0.00 | 3 | 1013.0 |
| 20260507041103 | 52 | 157 | 3.0 | 6.0 | 0.00 | 0.25 | 0.00 | 3 | 1013.0 |
| 20260507040604 | 53 | 174 | 3.0 | 8.0 | 0.00 | 0.25 | 0.00 | 3 | 1013.0 |
| 20260507040104 | 53 | 167 | 3.0 | 7.0 | 0.00 | 0.25 | 0.00 | 3 | 1013.0 |
| 20260507035604 | 53 | 184 | 3.0 | 6.0 | 0.00 | 0.25 | 0.00 | 3 | 1012.9 |
| 20260507035103 | 53 | 155 | 3.0 | 6.0 | 0.00 | 0.25 | 0.00 | 3 | 1012.9 |
| 20260507034604 | 53 | 168 | 3.0 | 7.0 | 0.00 | 0.25 | 0.00 | 3 | 1012.9 |
| 20260507034104 | 53 | 180 | 4.0 | 6.0 | 0.00 | 0.25 | 0.00 | 3 | 1012.9 |
| 20260507033604 | 53 | 161 | 5.0 | 6.0 | 0.00 | 0.25 | 0.00 | 3 | 1012.8 |
| 20260507033104 | 53 | 174 | 4.0 | 7.0 | 0.00 | 0.25 | 0.00 | 3 | 1012.9 |
| 20260507032103 | 53 | 164 | 5.0 | 7.0 | 0.00 | 0.25 | 0.00 | 3 | 1012.8 |
| 20260507031604 | 53 | 171 | 2.0 | 5.0 | 0.00 | 0.25 | 0.00 | 3 | 1012.9 |
| 20260507030604 | 53 | 154 | 3.0 | 5.0 | 0.00 | 0.25 | 0.00 | 3 | 1012.8 |
| 20260507030104 | 53 | 159 | 3.0 | 7.0 | 0.00 | 0.25 | 0.00 | 3 | 1012.9 |
| 20260507025604 | 53 | 162 | 4.0 | 6.0 | 0.00 | 0.25 | 0.00 | 3 | 1012.9 |
| 20260507025104 | 53 | 189 | 3.0 | 6.0 | 0.00 | 0.25 | 0.00 | 3 | 1012.9 |
| 20260507023604 | 54 | 170 | 3.0 | 7.0 | 0.00 | 0.25 | 0.00 | 3 | 1012.9 |
| 20260507023104 | 54 | 170 | 4.0 | 7.0 | 0.00 | 0.25 | 0.00 | 3 | 1012.9 |
| 20260507022604 | 54 | 154 | 5.0 | 7.0 | 0.00 | 0.25 | 0.00 | 3 | 1012.9 |
| 20260507022103 | 54 | 167 | 4.0 | 6.0 | 0.00 | 0.25 | 0.00 | 3 | 1012.8 |
| 20260507021604 | 54 | 167 | 3.0 | 7.0 | 0.00 | 0.25 | 0.00 | 3 | 1012.8 |
| 20260507021104 | 54 | 173 | 5.0 | 7.0 | 0.00 | 0.25 | 0.00 | 3 | 1012.8 |
| 20260507020604 | 54 | 170 | 3.0 | 7.0 | 0.00 | 0.25 | 0.00 | 3 | 1012.8 |
| 20260507020104 | 54 | 169 | 4.0 | 6.0 | 0.00 | 0.25 | 0.00 | 3 | 1012.8 |
| 20260507015604 | 54 | 184 | 4.0 | 6.0 | 0.00 | 0.25 | 0.00 | 3 | 1012.9 |
| 20260507015104 | 54 | 173 | 5.0 | 7.0 | 0.00 | 0.25 | 0.00 | 3 | 1012.9 |
| 20260507014604 | 54 | 157 | 3.0 | 6.0 | 0.00 | 0.25 | 0.00 | 3 | 1013.0 |
| 20260507014104 | 54 | 189 | 3.0 | 3.0 | 0.00 | 0.25 | 0.00 | 3 | 1013.0 |
| 20260507013604 | 54 | 172 | 3.0 | 6.0 | 0.00 | 0.25 | 0.00 | 3 | 1013.1 |
| 20260507013104 | 54 | 175 | 5.0 | 7.0 | 0.00 | 0.25 | 0.00 | 3 | 1013.2 |
| 20260507012104 | 54 | 164 | 3.0 | 7.0 | 0.00 | 0.25 | 0.00 | 3 | 1013.2 |
| 20260507011604 | 54 | 187 | 3.0 | 5.0 | 0.00 | 0.25 | 0.00 | 3 | 1013.2 |
| 20260507011104 | 54 | 176 | 2.0 | 5.0 | 0.00 | 0.25 | 0.00 | 3 | 1013.2 |
| 20260507010103 | 54 | 153 | 2.0 | 6.0 | 0.00 | 0.25 | 0.00 | 3 | 1013.3 |
| 20260507005104 | 54 | 148 | 3.0 | 5.0 | 0.00 | 0.25 | 0.00 | 3 | 1013.4 |
| 20260507003604 | 55 | 170 | 2.0 | 5.0 | 0.00 | 0.25 | 0.00 | 3 | 1013.5 |
| 20260507002604 | 55 | 190 | 2.0 | 3.0 | 0.00 | 0.25 | 0.00 | 3 | 1013.5 |
| 20260507002124 | 55 | 169 | 1.0 | 5.0 | 0.00 | 0.25 | 0.00 | 3 | 1013.5 |
| 20260507001104 | 55 | 175 | 2.0 | 3.0 | 0.00 | 0.25 | 0.00 | 3 | 1013.6 |
| 20260507000604 | 55 | 198 | 2.0 | 3.0 | 0.00 | 0.25 | 0.00 | 3 | 1013.6 |
| 20260506235604 | 55 | 171 | 4.0 | 6.0 | 0.00 | 0.25 | 0.00 | 3 | 1013.6 |
| 20260506235104 | 55 | 198 | 3.0 | 5.0 | 0.00 | 0.25 | 0.00 | 3 | 1013.6 |
| 20260506234604 | 55 | 176 | 3.0 | 7.0 | 0.00 | 0.25 | 0.00 | 3 | 1013.5 |
| 20260506234104 | 55 | 154 | 3.0 | 7.0 | 0.00 | 0.25 | 0.00 | 3 | 1013.6 |
| 20260506233604 | 55 | 167 | 4.0 | 6.0 | 0.00 | 0.25 | 0.00 | 3 | 1013.6 |
| 20260506233104 | 55 | 166 | 3.0 | 6.0 | 0.00 | 0.25 | 0.00 | 3 | 1013.6 |
| 20260506232604 | 55 | 179 | 2.0 | 5.0 | 0.00 | 0.25 | 0.00 | 3 | 1013.5 |
| 20260506232104 | 55 | 171 | 3.0 | 6.0 | 0.00 | 0.25 | 0.00 | 3 | 1013.6 |
| 20260506231604 | 55 | 176 | 3.0 | 6.0 | 0.00 | 0.25 | 0.00 | 3 | 1013.6 |
| 20260506231104 | 55 | 164 | 2.0 | 3.0 | 0.00 | 0.25 | 0.00 | 3 | 1013.6 |
| 20260506230604 | 55 | 171 | 2.0 | 5.0 | 0.00 | 0.25 | 0.00 | 3 | 1013.7 |
| 20260506230104 | 55 | 177 | 2.0 | 5.0 | 0.00 | 0.25 | 0.00 | 3 | 1013.7 |
| 20260506225604 | 55 | 167 | 3.0 | 5.0 | 0.00 | 0.25 | 0.00 | 3 | 1013.7 |
| 20260506225104 | 55 | 174 | 3.0 | 6.0 | 0.00 | 0.25 | 0.00 | 3 | 1013.8 |
| 20260506224604 | 55 | 184 | 2.0 | 5.0 | 0.00 | 0.25 | 0.00 | 3 | 1013.8 |
| 20260506224104 | 55 | 169 | 2.0 | 5.0 | 0.00 | 0.25 | 0.00 | 3 | 1013.7 |
| 20260506223104 | 55 | 179 | 3.0 | 6.0 | 0.00 | 0.25 | 0.00 | 3 | 1013.7 |
| 20260506222604 | 55 | 188 | 3.0 | 5.0 | 0.00 | 0.25 | 0.00 | 3 | 1013.7 |
| 20260506222104 | 56 | 182 | 3.0 | 6.0 | 0.00 | 0.25 | 0.00 | 3 | 1013.8 |
| 20260506221604 | 56 | 169 | 3.0 | 6.0 | 0.00 | 0.25 | 0.00 | 3 | 1013.7 |
| 20260506221104 | 56 | 182 | 3.0 | 5.0 | 0.00 | 0.25 | 0.00 | 3 | 1013.6 |
| 20260506220604 | 56 | 174 | 3.0 | 6.0 | 0.00 | 0.25 | 0.00 | 3 | 1013.6 |
| 20260506220103 | 56 | 171 | 3.0 | 5.0 | 0.00 | 0.25 | 0.00 | 3 | 1013.7 |
| 20260506215104 | 56 | 172 | 4.0 | 6.0 | 0.00 | 0.25 | 0.25 | 3 | 1013.7 |
| 20260506214604 | 56 | 174 | 2.0 | 5.0 | 0.00 | 0.25 | 0.25 | 3 | 1013.7 |
| 20260506214103 | 56 | 188 | 3.0 | 5.0 | 0.00 | 0.25 | 0.25 | 3 | 1013.7 |
| 20260506213603 | 56 | 173 | 3.0 | 5.0 | 0.00 | 0.25 | 0.25 | 3 | 1013.7 |
| 20260506212104 | 56 | 157 | 2.0 | 6.0 | 0.02 | 0.25 | 0.25 | 3 | 1013.7 |
| 20260506211604 | 56 | 168 | 3.0 | 6.0 | 0.03 | 0.25 | 0.25 | 3 | 1013.7 |
| 20260506211104 | 56 | 173 | 2.0 | 5.0 | 0.03 | 0.25 | 0.25 | 3 | 1013.7 |
| 20260506210604 | 56 | 174 | 3.0 | 6.0 | 0.04 | 0.25 | 0.25 | 3 | 1013.7 |
| 20260506210104 | 56 | 149 | 2.0 | 5.0 | 0.04 | 0.25 | 0.25 | 3 | 1013.7 |
| 20260506205104 | 57 | 168 | 2.0 | 5.0 | 0.04 | 0.25 | 0.25 | 3 | 1013.8 |
| 20260506204604 | 57 | 184 | 3.0 | 5.0 | 0.04 | 0.25 | 0.25 | 3 | 1013.8 |
| 20260506204104 | 57 | 177 | 2.0 | 5.0 | 0.04 | 0.25 | 0.25 | 3 | 1013.7 |
| 20260506203104 | 57 | 189 | 2.0 | 5.0 | 0.04 | 0.25 | 0.25 | 3 | 1013.7 |
| 20260506202104 | 57 | 33 | 2.0 | 5.0 | 0.02 | 0.24 | 0.24 | 3 | 1013.6 |
| 20260506201104 | 57 | 9 | 0.0 | 3.0 | 0.01 | 0.22 | 0.22 | 3 | 1013.6 |
| 20260506200604 | 57 | 346 | 2.0 | 5.0 | 0.00 | 0.21 | 0.21 | 3 | 1013.6 |
| 20260506200104 | 57 | 340 | 2.0 | 6.0 | 0.00 | 0.22 | 0.21 | 3 | 1013.6 |
| 20260506195604 | 57 | 351 | 4.0 | 8.0 | 0.00 | 0.22 | 0.21 | 3 | 1013.6 |
| 20260506195104 | 58 | 307 | 3.0 | 6.0 | 0.00 | 0.27 | 0.21 | 3 | 1013.5 |
| 20260506194604 | 58 | 349 | 5.0 | 10.0 | 0.00 | 0.33 | 0.21 | 3 | 1013.4 |
| 20260506194104 | 58 | 1 | 7.0 | 12.0 | 0.00 | 0.36 | 0.21 | 3 | 1013.3 |
| 20260506193605 | 58 | 2 | 5.0 | 12.0 | 0.00 | 0.39 | 0.21 | 3 | 1013.3 |
| 20260506192604 | 58 | 45 | 2.0 | 5.0 | 0.00 | 0.39 | 0.21 | 3 | 1013.0 |
| 20260506192104 | 57 | 35 | 5.0 | 6.0 | 0.00 | 0.39 | 0.21 | 3 | 1012.8 |
| 20260506191603 | 57 | 49 | 2.0 | 3.0 | 0.00 | 0.39 | 0.21 | 3 | 1012.7 |
| 20260506191104 | 57 | 87 | 2.0 | 3.0 | 0.00 | 0.40 | 0.21 | 3 | 1012.6 |
| 20260506190605 | 57 | 41 | 2.0 | 3.0 | 0.00 | 0.41 | 0.21 | 3 | 1012.5 |
| 20260506190104 | 57 | 10 | 2.0 | 9.0 | 0.00 | 0.41 | 0.21 | 3 | 1012.4 |
| 20260506185604 | 57 | 36 | 3.0 | 3.0 | 0.01 | 0.42 | 0.21 | 3 | 1012.4 |
| 20260506185105 | 57 | 223 | 0.0 | 3.0 | 0.02 | 0.42 | 0.21 | 3 | 1012.2 |
| 20260506184604 | 57 | 226 | 2.0 | 5.0 | 0.02 | 0.43 | 0.21 | 3 | 1012.1 |
| 20260506184104 | 57 | 169 | 3.0 | 6.0 | 0.02 | 0.43 | 0.21 | 3 | 1012.1 |
| 20260506183604 | 56 | 175 | 3.0 | 7.0 | 0.02 | 0.43 | 0.21 | 3 | 1012.0 |
| 20260506183104 | 56 | 179 | 3.0 | 6.0 | 0.02 | 0.43 | 0.21 | 3 | 1011.9 |
| 20260506182604 | 56 | 212 | 2.0 | 5.0 | 0.02 | 0.43 | 0.21 | 3 | 1011.9 |
| 20260506182104 | 56 | 208 | 3.0 | 6.0 | 0.02 | 0.43 | 0.21 | 3 | 1011.8 |
| 20260506181605 | 56 | 166 | 1.0 | 2.0 | 0.02 | 0.43 | 0.21 | 3 | 1011.7 |
| 20260506181104 | 56 | 163 | 1.0 | 3.0 | 0.02 | 0.43 | 0.21 | 3 | 1011.6 |
| 20260506180604 | 56 | 162 | 1.0 | 5.0 | 0.02 | 0.43 | 0.21 | 3 | 1011.4 |
| 20260506180104 | 56 | 187 | 4.0 | 9.0 | 0.02 | 0.43 | 0.21 | 3 | 1011.4 |
| 20260506175604 | 57 | 171 | 3.0 | 6.0 | 0.01 | 0.42 | 0.20 | 3 | 1011.4 |
| 20260506175104 | 57 | 224 | 2.0 | 3.0 | 0.00 | 0.41 | 0.20 | 3 | 1011.3 |
| 20260506174604 | 57 | 213 | 2.0 | 3.0 | 0.00 | 0.41 | 0.20 | 3 | 1011.3 |
| 20260506174104 | 57 | 132 | 4.0 | 7.0 | 0.01 | 0.41 | 0.20 | 3 | 1011.2 |
| 20260506173604 | 57 | 142 | 2.0 | 5.0 | 0.01 | 0.41 | 0.20 | 3 | 1011.2 |
| 20260506173104 | 57 | 170 | 2.0 | 5.0 | 0.02 | 0.41 | 0.20 | 3 | 1011.3 |
| 20260506172604 | 57 | 161 | 3.0 | 5.0 | 0.03 | 0.41 | 0.20 | 3 | 1011.3 |
| 20260506171604 | 57 | 200 | 3.0 | 7.0 | 0.08 | 0.41 | 0.20 | 3 | 1011.3 |
| 20260506171104 | 57 | 169 | 3.0 | 7.0 | 0.09 | 0.41 | 0.20 | 3 | 1011.2 |
| 20260506170603 | 57 | 190 | 3.0 | 3.0 | 0.10 | 0.41 | 0.20 | 3 | 1011.2 |
| 20260506170104 | 57 | 194 | 2.0 | 5.0 | 0.13 | 0.41 | 0.20 | 3 | 1011.1 |
| 20260506165604 | 58 | 182 | 3.0 | 5.0 | 0.14 | 0.41 | 0.20 | 3 | 1011.0 |
| 20260506164604 | 58 | 179 | 2.0 | 6.0 | 0.19 | 0.41 | 0.20 | 3 | 1011.1 |
| 20260506164105 | 58 | 197 | 3.0 | 5.0 | 0.19 | 0.40 | 0.19 | 3 | 1011.1 |
| 20260506163604 | 58 | 207 | 3.0 | 7.0 | 0.19 | 0.41 | 0.19 | 3 | 1011.2 |
| 20260506163104 | 59 | 185 | 5.0 | 8.0 | 0.18 | 0.40 | 0.18 | 3 | 1011.2 |
| 20260506162604 | 59 | 174 | 3.0 | 7.0 | 0.17 | 0.39 | 0.17 | 3 | 1011.2 |
| 20260506162104 | 59 | 196 | 3.0 | 5.0 | 0.14 | 0.38 | 0.14 | 3 | 1011.3 |
| 20260506161604 | 59 | 184 | 2.0 | 3.0 | 0.12 | 0.35 | 0.12 | 3 | 1011.4 |
| 20260506161104 | 60 | 194 | 2.0 | 6.0 | 0.10 | 0.34 | 0.10 | 3 | 1011.5 |
| 20260506160604 | 60 | 166 | 3.0 | 6.0 | 0.09 | 0.34 | 0.09 | 3 | 1011.4 |
| 20260506160105 | 61 | 194 | 2.0 | 5.0 | 0.07 | 0.33 | 0.07 | 3 | 1011.6 |
| 20260506155604 | 61 | 195 | 0.0 | 3.0 | 0.06 | 0.31 | 0.06 | 3 | 1011.5 |
| 20260506155104 | 61 | 172 | 2.0 | 3.0 | 0.04 | 0.30 | 0.04 | 3 | 1011.4 |
| 20260506154604 | 61 | 183 | 3.0 | 7.0 | 0.01 | 0.27 | 0.01 | 8 | 1011.3 |
| 20260506154104 | 61 | 139 | 4.0 | 9.0 | 0.00 | 0.26 | 0.00 | 13 | 1011.2 |
| 20260506153604 | 61 | 138 | 5.0 | 10.0 | 0.00 | 0.26 | 0.00 | 15 | 1011.1 |
| 20260506153104 | 61 | 148 | 7.0 | 9.0 | 0.00 | 0.26 | 0.00 | 18 | 1011.1 |
| 20260506152604 | 61 | 151 | 6.0 | 9.0 | 0.00 | 0.26 | 0.00 | 19 | 1011.1 |
| 20260506152104 | 62 | 135 | 3.0 | 9.0 | 0.00 | 0.26 | 0.00 | 20 | 1010.9 |
| 20260506151604 | 62 | 131 | 5.0 | 13.0 | 0.00 | 0.26 | 0.00 | 21 | 1010.9 |
| 20260506151104 | 62 | 148 | 6.0 | 13.0 | 0.00 | 0.26 | 0.00 | 22 | 1010.8 |
| 20260506150104 | 62 | 142 | 9.0 | 12.0 | 0.00 | 0.26 | 0.00 | 25 | 1010.9 |
| 20260506145104 | 62 | 125 | 4.0 | 9.0 | 0.00 | 0.26 | 0.00 | 27 | 1010.9 |
| 20260506144604 | 63 | 137 | 4.0 | 10.0 | 0.00 | 0.26 | 0.00 | 27 | 1010.8 |
| 20260506144104 | 63 | 135 | 3.0 | 7.0 | 0.00 | 0.26 | 0.00 | 29 | 1010.8 |
| 20260506143105 | 63 | 164 | 5.0 | 14.0 | 0.00 | 0.26 | 0.00 | 29 | 1010.8 |
| 20260506142604 | 63 | 212 | 7.0 | 13.0 | 0.00 | 0.26 | 0.00 | 31 | 1010.6 |
| 20260506142104 | 63 | 192 | 6.0 | 12.0 | 0.00 | 0.26 | 0.00 | 30 | 1010.6 |
| 20260506141604 | 63 | 186 | 6.0 | 12.0 | 0.00 | 0.26 | 0.00 | 31 | 1010.6 |
| 20260506141104 | 63 | 151 | 5.0 | 12.0 | 0.00 | 0.26 | 0.00 | 33 | 1010.7 |
| 20260506140604 | 64 | 147 | 6.0 | 10.0 | 0.00 | 0.26 | 0.00 | 33 | 1010.7 |
| 20260506140104 | 64 | 148 | 4.0 | 9.0 | 0.00 | 0.26 | 0.00 | 31 | 1010.8 |
| 20260506135604 | 64 | 178 | 6.0 | 14.0 | 0.00 | 0.26 | 0.00 | 33 | 1010.8 |
| 20260506135104 | 64 | 143 | 6.0 | 10.0 | 0.00 | 0.26 | 0.00 | 34 | 1010.9 |
| 20260506134604 | 64 | 157 | 5.0 | 9.0 | 0.00 | 0.26 | 0.00 | 34 | 1010.9 |
| 20260506134104 | 64 | 178 | 3.0 | 10.0 | 0.00 | 0.26 | 0.00 | 33 | 1010.9 |
| 20260506133604 | 64 | 169 | 6.0 | 14.0 | 0.00 | 0.26 | 0.00 | 34 | 1011.0 |
| 20260506133104 | 64 | 171 | 6.0 | 14.0 | 0.00 | 0.26 | 0.00 | 36 | 1011.0 |
| 20260506132604 | 65 | 159 | 8.0 | 13.0 | 0.00 | 0.26 | 0.00 | 36 | 1011.0 |
| 20260506131604 | 65 | 189 | 3.0 | 8.0 | 0.00 | 0.26 | 0.00 | 33 | 1011.0 |
| 20260506131103 | 65 | 202 | 3.0 | 10.0 | 0.00 | 0.26 | 0.00 | 35 | 1011.1 |
| 20260506130604 | 64 | 134 | 6.0 | 10.0 | 0.00 | 0.26 | 0.00 | 32 | 1011.0 |
| 20260506130104 | 64 | 158 | 3.0 | 10.0 | 0.00 | 0.26 | 0.00 | 24 | 1011.1 |
| 20260506125604 | 63 | 156 | 4.0 | 8.0 | 0.00 | 0.26 | 0.00 | 22 | 1011.2 |
| 20260506125104 | 63 | 141 | 5.0 | 12.0 | 0.00 | 0.27 | 0.00 | 29 | 1011.3 |
| 20260506124604 | 63 | 174 | 6.0 | 13.0 | 0.00 | 0.27 | 0.00 | 30 | 1011.4 |
| 20260506124104 | 63 | 177 | 8.0 | 14.0 | 0.00 | 0.27 | 0.00 | 32 | 1011.4 |
| 20260506123604 | 63 | 164 | 6.0 | 10.0 | 0.00 | 0.27 | 0.00 | 29 | 1011.5 |
| 20260506123103 | 63 | 157 | 6.0 | 9.0 | 0.00 | 0.27 | 0.00 | 28 | 1011.4 |
| 20260506122604 | 63 | 197 | 7.0 | 14.0 | 0.00 | 0.27 | 0.00 | 31 | 1011.5 |
| 20260506122103 | 63 | 193 | 6.0 | 17.0 | 0.00 | 0.27 | 0.00 | 33 | 1011.4 |
| 20260506121604 | 62 | 177 | 7.0 | 15.0 | 0.00 | 0.27 | 0.00 | 30 | 1011.3 |